EW0435 Weather Reports


Display with metric or nautical units.
time (UTC)temp
F
wind
direction
speed
MPH
gust
MPH
rain 1hr
in
rain 24hr
in
rain mn
in
humidity
%
barometer
mb
20260508213004 66 312 0.0 0.0 0.00 0.00 0.00 32 1020.2
20260508212503 66 296 0.0 1.0 0.00 0.00 0.00 29 1020.1
20260508212004 66 343 0.0 3.0 0.00 0.00 0.00 30 1020.2
20260508211504 66 313 0.0 1.0 0.00 0.00 0.00 36 1020.3
20260508210504 64 326 0.0 2.0 0.00 0.00 0.00 35 1020.4
20260508210004 64 328 0.0 1.0 0.00 0.00 0.00 33 1020.3
20260508205503 64 336 0.0 2.0 0.00 0.00 0.00 35 1020.4
20260508205004 63 323 0.0 1.0 0.00 0.00 0.00 32 1020.4
20260508204503 63 318 0.0 3.0 0.00 0.00 0.00 32 1020.4
20260508204005 62 299 0.0 1.0 0.00 0.00 0.00 27 1020.4
20260508203504 62 280 0.0 0.0 0.00 0.00 0.00 27 1020.3
20260508202504 63 279 0.0 3.0 0.00 0.00 0.00 27 1020.3
20260508202004 64 279 0.0 1.0 0.00 0.00 0.00 29 1020.3
20260508201504 64 324 0.0 0.0 0.00 0.00 0.00 36 1020.4
20260508201004 64 343 0.0 0.0 0.00 0.00 0.00 34 1020.3
20260508200004 64 320 0.0 0.0 0.00 0.00 0.00 33 1020.2
20260508195504 63 332 0.0 0.0 0.00 0.00 0.00 33 1020.2
20260508195003 63 316 0.0 0.0 0.00 0.00 0.00 31 1020.2
20260508194504 62 305 0.0 0.0 0.00 0.00 0.00 29 1020.2
20260508194004 61 288 0.0 0.0 0.00 0.00 0.00 31 1020.2
20260508193503 61 276 0.0 1.0 0.00 0.00 0.00 29 1020.2
20260508193004 61 287 0.0 1.0 0.00 0.00 0.00 29 1020.2
20260508192004 61 292 0.0 1.0 0.00 0.00 0.00 28 1020.2
20260508191504 62 273 0.0 1.0 0.00 0.00 0.00 30 1020.3
20260508191004 61 312 0.0 1.0 0.00 0.00 0.00 29 1020.2
20260508190504 61 275 1.0 2.0 0.00 0.00 0.00 26 1020.3
20260508185503 62 289 0.0 3.0 0.00 0.00 0.00 28 1020.3
20260508185004 61 304 0.0 2.0 0.00 0.00 0.00 26 1020.3
20260508184504 61 285 1.0 2.0 0.00 0.00 0.00 26 1020.2
20260508184004 61 290 0.0 3.0 0.00 0.00 0.00 27 1020.3
20260508183504 61 314 0.0 2.0 0.00 0.00 0.00 27 1020.2
20260508182004 60 287 1.0 3.0 0.00 0.00 0.00 25 1020.3
20260508181004 61 274 0.0 3.0 0.00 0.00 0.00 27 1020.3
20260508180004 61 274 1.0 3.0 0.00 0.00 0.00 24 1020.2
20260508174504 62 261 1.0 3.0 0.00 0.00 0.00 24 1020.1
20260508174004 62 287 1.0 3.0 0.00 0.00 0.00 25 1020.0
20260508173004 62 289 0.0 0.0 0.00 0.00 0.00 28 1020.0
20260508172504 62 291 0.0 1.0 0.00 0.00 0.00 27 1020.0
20260508172005 62 281 0.0 1.0 0.00 0.00 0.00 24 1020.0
20260508171503 62 249 0.0 2.0 0.00 0.00 0.00 22 1020.0
20260508171005 62 257 0.0 0.0 0.00 0.00 0.00 30 1020.0
20260508170504 63 321 0.0 0.0 0.00 0.00 0.00 29 1020.0
20260508170004 62 320 0.0 0.0 0.00 0.00 0.00 31 1019.9
20260508165504 62 290 0.0 2.0 0.00 0.00 0.00 29 1019.9
20260508165004 62 246 0.0 1.0 0.00 0.00 0.00 29 1019.9
20260508164504 62 327 0.0 1.0 0.00 0.00 0.00 36 1019.9
20260508164004 61 308 0.0 0.0 0.00 0.00 0.00 33 1019.9
20260508163504 61 289 0.0 0.0 0.00 0.00 0.00 31 1020.0
20260508163004 61 320 0.0 0.0 0.00 0.00 0.00 32 1019.9
20260508161004 60 269 0.0 0.0 0.00 0.00 0.00 31 1019.8
20260508160504 60 241 0.0 0.0 0.00 0.00 0.00 32 1019.9
20260508160004 60 246 0.0 0.0 0.00 0.00 0.00 32 1019.9
20260508155503 60 317 0.0 0.0 0.00 0.00 0.00 32 1019.9
20260508155004 59 317 0.0 0.0 0.00 0.00 0.00 35 1019.9
20260508154504 58 320 0.0 1.0 0.00 0.00 0.00 34 1019.9
20260508154004 58 289 0.0 0.0 0.00 0.00 0.00 35 1019.9
20260508153504 58 287 0.0 0.0 0.00 0.00 0.00 36 1019.9
20260508153004 57 284 0.0 1.0 0.00 0.00 0.00 37 1019.9
20260508152504 57 280 0.0 0.0 0.00 0.00 0.00 37 1019.9
20260508152005 57 292 0.0 0.0 0.00 0.00 0.00 35 1019.8
20260508151504 57 284 0.0 1.0 0.00 0.00 0.00 36 1019.8
20260508151004 57 281 0.0 1.0 0.00 0.00 0.00 36 1019.8
20260508150504 57 262 0.0 2.0 0.00 0.00 0.00 35 1019.8
20260508150004 57 268 1.0 2.0 0.00 0.00 0.00 35 1019.8
20260508145004 56 272 1.0 2.0 0.00 0.00 0.00 40 1019.8
20260508144504 56 273 0.0 1.0 0.00 0.00 0.00 43 1019.8
20260508144004 55 274 0.0 1.0 0.00 0.00 0.00 49 1019.7
20260508143504 55 257 0.0 0.0 0.00 0.00 0.00 50 1019.7
20260508143004 54 249 0.0 0.0 0.00 0.00 0.00 52 1019.7
20260508142504 54 240 0.0 0.0 0.00 0.00 0.00 54 1019.7
20260508142004 54 230 0.0 2.0 0.00 0.00 0.00 55 1019.7
20260508141504 53 231 0.0 2.0 0.00 0.00 0.00 58 1019.7
20260508141004 53 234 0.0 0.0 0.00 0.00 0.00 60 1019.7
20260508140504 53 222 0.0 0.0 0.00 0.00 0.00 63 1019.7
20260508140004 52 225 0.0 0.0 0.00 0.00 0.00 65 1019.7
20260508135503 52 226 0.0 0.0 0.00 0.00 0.00 66 1019.7
20260508135004 51 217 0.0 0.0 0.00 0.00 0.00 69 1019.7
20260508134504 51 217 0.0 0.0 0.00 0.00 0.00 68 1019.7
20260508134004 51 217 0.0 0.0 0.00 0.00 0.00 68 1019.6
20260508133503 50 218 0.0 0.0 0.00 0.00 0.00 69 1019.6
20260508133004 50 225 0.0 0.0 0.00 0.00 0.00 70 1019.6
20260508132504 49 208 0.0 0.0 0.00 0.00 0.00 71 1019.6
20260508132004 49 207 0.0 0.0 0.00 0.00 0.00 71 1019.6
20260508131503 49 206 0.0 0.0 0.00 0.00 0.00 72 1019.5
20260508131003 49 212 0.0 0.0 0.00 0.00 0.00 72 1019.5
20260508130504 48 224 0.0 0.0 0.00 0.00 0.00 72 1019.5
20260508125504 47 239 0.0 0.0 0.00 0.00 0.00 75 1019.4
20260508125004 47 239 0.0 0.0 0.00 0.00 0.00 76 1019.3
20260508124503 47 239 0.0 0.0 0.00 0.00 0.00 76 1019.4
20260508124004 47 239 0.0 0.0 0.00 0.00 0.00 77 1019.4
20260508123504 47 239 0.0 0.0 0.00 0.00 0.00 76 1019.4
20260508122504 47 239 0.0 0.0 0.00 0.00 0.00 75 1019.4
20260508121504 48 239 0.0 0.0 0.00 0.00 0.00 74 1019.4
20260508121003 48 239 0.0 0.0 0.00 0.00 0.00 74 1019.4
20260508120504 48 239 0.0 0.0 0.00 0.00 0.00 76 1019.3
20260508120004 46 239 0.0 0.0 0.00 0.00 0.00 78 1019.4
20260508115504 45 240 0.0 0.0 0.00 0.00 0.00 78 1019.4
20260508114004 46 240 0.0 0.0 0.00 0.00 0.00 74 1019.4
20260508113504 47 240 0.0 0.0 0.00 0.00 0.00 72 1019.4
20260508113005 48 240 0.0 0.0 0.00 0.00 0.00 71 1019.5
20260508112503 49 240 0.0 0.0 0.00 0.00 0.00 71 1019.5
20260508112004 49 240 0.0 0.0 0.00 0.00 0.00 71 1019.5
20260508111504 49 240 0.0 0.0 0.00 0.00 0.00 71 1019.5
20260508111004 49 240 0.0 0.0 0.00 0.00 0.00 71 1019.5
20260508110504 49 240 0.0 0.0 0.00 0.00 0.00 71 1019.5
20260508110004 49 240 0.0 0.0 0.00 0.00 0.00 70 1019.5
20260508105504 49 241 0.0 0.0 0.00 0.00 0.00 71 1019.4
20260508105003 48 241 0.0 0.0 0.00 0.00 0.00 71 1019.4
20260508104504 48 241 0.0 0.0 0.00 0.00 0.00 71 1019.4
20260508104004 49 241 0.0 0.0 0.00 0.00 0.00 70 1019.4
20260508103503 49 241 0.0 0.0 0.00 0.00 0.00 70 1019.4
20260508103004 49 241 0.0 0.0 0.00 0.00 0.00 69 1019.5
20260508102504 50 241 0.0 0.0 0.00 0.00 0.00 67 1019.5
20260508102004 50 241 0.0 0.0 0.00 0.00 0.00 67 1019.5
20260508101504 50 242 0.0 0.0 0.00 0.00 0.00 67 1019.5
20260508101004 50 242 0.0 0.0 0.00 0.00 0.00 67 1019.5
20260508100004 50 232 0.0 0.0 0.00 0.00 0.00 68 1019.4
20260508094503 49 254 0.0 0.0 0.00 0.00 0.00 69 1019.4
20260508094003 49 254 0.0 0.0 0.00 0.00 0.00 68 1019.4
20260508093004 51 254 0.0 0.0 0.00 0.00 0.00 64 1019.4
20260508092504 52 254 0.0 0.0 0.00 0.00 0.00 62 1019.5
20260508091504 53 254 0.0 0.0 0.00 0.00 0.00 60 1019.4
20260508090004 52 254 0.0 0.0 0.00 0.00 0.00 64 1019.4
20260508085503 51 254 0.0 0.0 0.00 0.00 0.00 66 1019.4
20260508085004 50 254 0.0 0.0 0.00 0.00 0.00 67 1019.5
20260508084504 51 254 0.0 0.0 0.00 0.00 0.00 65 1019.5
20260508084004 52 254 0.0 0.0 0.00 0.00 0.00 63 1019.4
20260508083504 52 254 0.0 0.0 0.00 0.00 0.00 62 1019.4
20260508083005 53 254 0.0 0.0 0.00 0.00 0.00 61 1019.4
20260508082504 54 254 0.0 0.0 0.00 0.00 0.00 60 1019.4
20260508082003 53 254 0.0 0.0 0.00 0.00 0.00 61 1019.4
20260508081504 53 254 0.0 0.0 0.00 0.00 0.00 62 1019.4
20260508081004 52 254 0.0 0.0 0.00 0.00 0.00 63 1019.4
20260508080504 51 254 0.0 0.0 0.00 0.00 0.00 66 1019.4
20260508080004 52 254 0.0 0.0 0.00 0.00 0.00 63 1019.5
20260508075504 53 254 0.0 0.0 0.00 0.00 0.00 62 1019.4
20260508075004 53 254 0.0 0.0 0.00 0.00 0.00 62 1019.4
20260508074504 52 254 0.0 0.0 0.00 0.00 0.00 64 1019.4
20260508074004 52 254 0.0 0.0 0.00 0.00 0.00 64 1019.5
20260508073504 52 254 0.0 0.0 0.00 0.00 0.00 64 1019.5
20260508073004 51 254 0.0 0.0 0.00 0.00 0.00 66 1019.5
20260508072503 52 254 0.0 0.0 0.00 0.00 0.00 64 1019.5
20260508072004 53 254 0.0 0.0 0.00 0.00 0.00 62 1019.5
20260508071004 53 254 0.0 0.0 0.00 0.00 0.00 63 1019.5
20260508070504 53 254 0.0 0.0 0.00 0.00 0.00 64 1019.5
20260508065504 51 254 0.0 0.0 0.00 0.00 0.00 67 1019.6
20260508065004 51 254 0.0 0.0 0.00 0.00 0.00 68 1019.6
20260508064504 50 254 0.0 0.0 0.00 0.00 0.00 69 1019.6
20260508064004 51 255 0.0 0.0 0.00 0.00 0.00 68 1019.6
20260508063504 50 324 0.0 0.0 0.00 0.00 0.00 70 1019.6
20260508062504 52 324 0.0 0.0 0.00 0.00 0.00 65 1019.6
20260508062004 52 324 0.0 0.0 0.00 0.00 0.00 65 1019.6
20260508061504 52 324 0.0 0.0 0.00 0.00 0.00 65 1019.6
20260508061004 52 324 0.0 0.0 0.00 0.00 0.00 65 1019.6
20260508060005 51 324 0.0 0.0 0.00 0.00 0.00 68 1019.6
20260508054504 51 324 0.0 0.0 0.00 0.00 0.00 67 1019.6
20260508054004 52 324 0.0 0.0 0.00 0.00 0.00 66 1019.6
20260508053504 51 324 0.0 0.0 0.00 0.00 0.00 68 1019.6
20260508053004 51 324 0.0 0.0 0.00 0.00 0.00 69 1019.6
20260508052504 51 324 0.0 0.0 0.00 0.00 0.00 68 1019.6
20260508052004 52 324 0.0 0.0 0.00 0.00 0.00 67 1019.6
20260508051003 53 324 0.0 0.0 0.00 0.00 0.00 64 1019.7
20260508050503 53 324 0.0 0.0 0.00 0.00 0.00 64 1019.6
20260508050004 53 324 0.0 0.0 0.00 0.00 0.00 64 1019.6
20260508045504 53 324 0.0 0.0 0.00 0.00 0.00 64 1019.6
20260508045004 53 324 0.0 0.0 0.00 0.00 0.00 65 1019.6
20260508044004 53 324 0.0 0.0 0.00 0.00 0.00 65 1019.7
20260508043504 54 337 0.0 0.0 0.00 0.00 0.00 63 1019.8
20260508043004 54 343 0.0 0.0 0.00 0.00 0.00 62 1019.8
20260508042004 54 348 0.0 0.0 0.00 0.00 0.00 62 1019.6
20260508041504 55 349 0.0 0.0 0.00 0.00 0.00 62 1019.6
20260508041004 55 349 0.0 0.0 0.00 0.00 0.00 62 1019.6
20260508040504 55 349 0.0 0.0 0.00 0.00 0.00 62 1019.6
20260508040004 55 349 0.0 0.0 0.00 0.00 0.00 63 1019.6
20260508035504 55 349 0.0 0.0 0.00 0.00 0.00 62 1019.6
20260508035003 55 350 0.0 0.0 0.00 0.00 0.00 61 1019.6
20260508034503 56 350 0.0 0.0 0.00 0.00 0.00 61 1019.6
20260508033504 56 350 0.0 0.0 0.00 0.00 0.00 59 1019.4
20260508032503 56 350 0.0 0.0 0.00 0.00 0.00 59 1019.3
20260508032004 56 350 0.0 0.0 0.00 0.00 0.00 59 1019.3
20260508031503 56 350 0.0 0.0 0.00 0.00 0.00 59 1019.3
20260508031004 57 350 0.0 0.0 0.00 0.00 0.00 58 1019.3
20260508030504 57 350 0.0 0.0 0.00 0.00 0.00 58 1019.2
20260508030003 58 350 0.0 0.0 0.00 0.00 0.00 57 1019.2
20260508025504 58 350 0.0 0.0 0.00 0.00 0.00 57 1019.2
20260508025004 58 350 0.0 0.0 0.00 0.00 0.00 57 1019.2
20260508024504 59 350 0.0 0.0 0.00 0.00 0.00 56 1019.1
20260508024004 60 350 0.0 0.0 0.00 0.00 0.00 55 1019.1
20260508023503 61 350 0.0 0.0 0.00 0.00 0.00 53 1019.1
20260508023004 61 348 0.0 0.0 0.00 0.00 0.00 52 1019.0
20260508022004 63 341 0.0 0.0 0.00 0.00 0.00 51 1019.0
20260508021504 63 342 0.0 0.0 0.00 0.00 0.00 51 1019.0
20260508021004 63 321 0.0 0.0 0.00 0.00 0.00 50 1019.1
20260508020004 64 335 0.0 0.0 0.00 0.00 0.00 49 1019.0
20260508015503 64 327 0.0 0.0 0.00 0.00 0.00 48 1019.0
20260508015004 65 332 0.0 0.0 0.00 0.00 0.00 47 1019.0
20260508014003 65 349 0.0 1.0 0.00 0.00 0.00 46 1019.0
20260508013005 66 336 0.0 1.0 0.00 0.00 0.00 46 1019.0
20260508012503 66 330 0.0 0.0 0.00 0.00 0.00 45 1019.0
20260508011504 67 338 0.0 1.0 0.00 0.00 0.00 44 1019.1
20260508011004 67 341 0.0 1.0 0.00 0.00 0.00 45 1019.1
20260508010504 67 1 0.0 2.0 0.00 0.00 0.00 43 1019.2
20260508005503 68 336 0.0 3.0 0.00 0.00 0.00 42 1019.2
20260508005004 68 324 0.0 1.0 0.00 0.00 0.00 43 1019.3
20260508004504 68 345 0.0 0.0 0.00 0.00 0.00 42 1019.3
20260508004003 68 344 0.0 1.0 0.00 0.00 0.00 41 1019.3
20260508003504 68 324 0.0 2.0 0.00 0.00 0.00 39 1019.2
20260508003005 68 341 0.0 1.0 0.00 0.00 0.00 37 1019.2
20260508002504 69 343 0.0 1.0 0.00 0.00 0.00 38 1019.2
20260508001504 69 336 0.0 1.0 0.00 0.00 0.00 38 1019.2
20260508001004 69 326 0.0 1.0 0.00 0.00 0.00 38 1019.2
20260508000504 70 329 0.0 1.0 0.00 0.00 0.00 38 1019.3
20260508000003 70 8 0.0 2.0 0.00 0.00 0.00 36 1019.2
20260507235504 70 331 0.0 1.0 0.00 0.00 0.00 37 1019.2
20260507235004 70 341 0.0 5.0 0.00 0.00 0.00 37 1019.2
20260507234503 70 337 0.0 5.0 0.00 0.00 0.00 37 1019.2
20260507234004 69 352 0.0 1.0 0.00 0.00 0.00 39 1019.1
20260507233503 69 310 0.0 3.0 0.00 0.00 0.00 40 1019.2
20260507233004 69 326 0.0 2.0 0.00 0.00 0.00 40 1019.2
20260507232004 69 327 0.0 2.0 0.00 0.00 0.00 41 1019.3
20260507230503 70 336 1.0 3.0 0.00 0.00 0.00 38 1019.3
20260507230004 71 343 0.0 2.0 0.00 0.00 0.00 38 1019.3
20260507225504 70 336 0.0 0.0 0.00 0.00 0.00 37 1019.3
20260507225004 70 331 0.0 1.0 0.00 0.00 0.00 37 1019.3
20260507224004 71 342 0.0 2.0 0.00 0.00 0.00 38 1019.5
20260507223504 71 338 0.0 2.0 0.00 0.00 0.00 40 1019.5
20260507222504 70 7 0.0 0.0 0.00 0.00 0.00 38 1019.6
20260507222003 70 0 0.0 2.0 0.00 0.00 0.00 39 1019.6
20260507221503 71 331 0.0 2.0 0.00 0.00 0.00 39 1019.6
20260507221004 72 359 0.0 2.0 0.00 0.00 0.00 40 1019.6
20260507220504 71 350 0.0 1.0 0.00 0.00 0.00 41 1019.7
20260507220004 70 333 0.0 2.0 0.00 0.00 0.00 40 1019.7
20260507215504 71 349 0.0 5.0 0.00 0.00 0.00 41 1019.7
20260507215004 71 323 0.0 1.0 0.00 0.00 0.00 42 1019.7
20260507214004 69 356 0.0 3.0 0.00 0.00 0.00 44 1019.8
20260507213504 67 22 1.0 3.0 0.00 0.00 0.00 50 1019.7